Voltar ao catálogo

PRAETORIAN SDA_520

AtivoPO
NORAD 100078·PAYLOAD·🇺🇸 United States

Lançado Jul 16, 2026 de Vandenberg Space Force Base

Loading…

Próximas Passagens (próximas 24 horas)

TLE

AtualizadoSource: Space-Track

Época: Sep 14, 2026, 22:58 UTC

1 A0078U 26163V   26257.95711734  .00000141  00000-0  11128-3 0  9994
2 A0078  81.4789 254.9823 0017284  55.4540 304.8247 13.86098986  8332

Acompanhe PRAETORIAN SDA_520 em tempo real com AllMySat

Download on the App Store